Location: Ash Shall?l al Awwal
(24.0167°N, 32.8667°E)
Time: 04:43:37
(UTC+00:00)

USA 234 - Pass Details

Date: 02 March 2021
Orbit: 1102 x 1105 km, 123.0° (Epoch: 12 April)

Event Time Altitude Azimuth Distance (km) Brightness Sun altitude
Rises 16:51:46 0° 29° (NNE) 3,917 5.9 -14.5°
Reaches altitude 10° 16:54:24 10° 22° (NNE) 2,958 5.3 -15.1°
Maximum altitude 17:00:23 40° 315° (NW) 1,574 4.4 -16.4°
Drops below altitude 10° 17:06:21 10° 249° (WSW) 2,954 6.6 -17.8°
Sets 17:08:59 0° 242° (WSW) 3,911 7.2 -18.4°
